Weather History for KCOD - March, 2014

Change the Weather History Date:

Monday, March 17, 2014

  Actual Average (KGEY) Record (KGEY)
Temperature  
Mean Temperature 40 °F 38 °F  
Max Temperature 51 °F 52 °F 72 °F (2012)
Min Temperature 30 °F 24 °F 17 °F (2002)
Degree Days  
Heating Degree Days 24 27  
Month to date heating degree days 522  
Since 1 July heating degree days 6493  
Cooling Degree Days 0 0  
Month to date cooling degree days 0  
Year to date cooling degree days 0  
Moisture  
Dew Point 24 °F    
Average Humidity 56    
Maximum Humidity 87    
Minimum Humidity 22    
Precipitation  
Precipitation 0.01 in 0.01 in 0.04 in (2014)
Month to date precipitation 0.17  
Year to date precipitation 0.58  
Sea Level Pressure  
Sea Level Pressure 29.52 in    
Wind  
Wind Speed 12 mph (NW)    
Max Wind Speed 34 mph    
Max Gust Speed 47 mph    
Visibility 10 miles    
Events      
T = Trace of Precipitation, MM = Missing Value Source: NWS Daily Summary

Daily Weather History Graph

Daily Weather History Graph

Search for Another Location

Airport or City:

Trip Planner

Search our weather history database for the weather conditions in past years. The results will help you decide how hot, cold, wet, or windy it might be!

Date:

Astronomy

Mar. 17, 2014 Rise Set
Actual Time 7:24 AM MDT 7:24 PM MDT
Civil Twilight 6:55 AM MDT 7:53 PM MDT
Nautical Twilight 6:21 AM MDT 8:27 PM MDT
Astronomical Twilight 5:47 AM MDT 9:02 PM MDT
Moon 8:49 PM MDT (3/17) 7:38 AM MDT (3/17)
Length of Visible Light 12h 58m
Length of Day
12h 00m
Full, 99% of the Moon is Illuminated
Mar 17
Full
Mar 23
Last Quarter
Mar 30
New
Apr 7
First Quarter
Apr 15
Full

Hourly Weather History & Observations

Time (MDT) Temp. Windchill Dew Point Humidity Pressure Visibility Wind Dir Wind Speed Gust Speed Precip Events Conditions
12:15 AM 46.4 °F 40.7 °F 17.6 °F 32% 29.78 in 10.0 mi SSE 12.7 mph - N/A   Clear
12:35 AM 48.2 °F - 17.6 °F 30% 29.77 in 10.0 mi SE 6.9 mph - N/A   Clear
12:55 AM 46.4 °F 42.9 °F 15.8 °F 29% 29.75 in 10.0 mi SE 6.9 mph - N/A   Clear
1:15 AM 46.4 °F 42.4 °F 17.6 °F 32% 29.73 in 10.0 mi South 8.1 mph - N/A   Clear
1:35 AM 48.2 °F - 17.6 °F 30% 29.71 in 10.0 mi SE 6.9 mph - N/A   Clear
1:55 AM 46.4 °F 45.2 °F 17.6 °F 32% 29.70 in 10.0 mi East 3.5 mph - N/A   Clear
2:15 AM 46.4 °F - 17.6 °F 32% 29.68 in 10.0 mi Calm Calm - N/A   Clear
2:35 AM 44.6 °F 41.4 °F 15.8 °F 31% 29.66 in 10.0 mi WNW 5.8 mph - N/A   Clear
2:55 AM 39.2 °F 35.0 °F 19.4 °F 45% 29.65 in 10.0 mi ENE 5.8 mph - N/A   Clear
3:15 AM 42.8 °F 39.3 °F 19.4 °F 39% 29.63 in 10.0 mi North 5.8 mph - N/A   Clear
3:35 AM 44.6 °F 40.7 °F 19.4 °F 37% 29.60 in 10.0 mi WSW 6.9 mph - N/A   Clear
3:55 AM 46.4 °F 41.1 °F 19.4 °F 34% 29.58 in 10.0 mi SW 11.5 mph - N/A   Clear
4:15 AM 48.2 °F - 19.4 °F 32% 29.56 in 10.0 mi SW 8.1 mph - N/A   Clear
4:35 AM 46.4 °F 44.3 °F 19.4 °F 34% 29.55 in 10.0 mi West 4.6 mph - N/A   Clear
4:55 AM 46.4 °F 43.5 °F 19.4 °F 34% 29.52 in 10.0 mi WSW 5.8 mph - N/A   Clear
5:15 AM 46.4 °F 43.5 °F 21.2 °F 37% 29.51 in 10.0 mi WSW 5.8 mph - N/A   Clear
5:35 AM 46.4 °F 41.1 °F 19.4 °F 34% 29.49 in 10.0 mi SSW 11.5 mph - N/A   Clear
5:55 AM 46.4 °F 41.9 °F 21.2 °F 37% 29.47 in 10.0 mi SSW 9.2 mph - N/A   Clear
6:15 AM 44.6 °F 39.2 °F 19.4 °F 37% 29.45 in 10.0 mi SW 10.4 mph - N/A   Clear
6:35 AM 39.2 °F 37.0 °F 19.4 °F 45% 29.45 in 10.0 mi NNW 3.5 mph - N/A   Clear
6:55 AM 35.6 °F 32.8 °F 21.2 °F 56% 29.44 in 10.0 mi ENE 3.5 mph - N/A   Clear
7:15 AM 37.4 °F - 21.2 °F 52% 29.44 in 10.0 mi Calm Calm - N/A   Scattered Clouds
7:35 AM 42.8 °F 40.1 °F 21.2 °F 42% 29.42 in 10.0 mi South 4.6 mph - N/A   Mostly Cloudy
7:55 AM 48.2 °F - 19.4 °F 32% 29.41 in 10.0 mi SSW 16.1 mph 24.2 mph N/A   Partly Cloudy
8:15 AM 51.8 °F - 17.6 °F 26% 29.40 in 10.0 mi WSW 17.3 mph 35.7 mph N/A   Clear
8:35 AM 51.8 °F - 14.0 °F 22% 29.40 in 10.0 mi West 16.1 mph 24.2 mph N/A   Clear
8:55 AM 51.8 °F - 15.8 °F 24% 29.39 in 10.0 mi WSW 13.8 mph 31.1 mph N/A   Clear
9:15 AM 50.0 °F - 17.6 °F 28% 29.39 in 10.0 mi WSW 16.1 mph 23.0 mph N/A   Clear
9:35 AM 46.4 °F 39.0 °F 23.0 °F 40% 29.39 in 10.0 mi WSW 19.6 mph 34.5 mph N/A   Partly Cloudy
9:55 AM 46.4 °F 39.5 °F 24.8 °F 43% 29.37 in 10.0 mi WSW 17.3 mph 31.1 mph N/A   Clear
10:15 AM 46.4 °F 40.1 °F 24.8 °F 43% 29.34 in 10.0 mi WSW 15.0 mph 29.9 mph N/A   Clear
10:35 AM 44.6 °F 35.5 °F 24.8 °F 46% 29.29 in 10.0 mi WSW 25.3 mph 40.3 mph N/A   Clear
10:55 AM 46.4 °F 38.5 °F 24.8 °F 43% 29.29 in 10.0 mi WSW 21.9 mph 38.0 mph N/A   Clear
11:15 AM 46.4 °F 38.7 °F 24.8 °F 43% 29.30 in 10.0 mi West 20.7 mph 39.1 mph N/A   Clear
11:35 AM 46.4 °F 39.8 °F 24.8 °F 43% 29.35 in 10.0 mi WNW 16.1 mph 28.8 mph N/A   Clear
11:55 AM 46.4 °F 39.8 °F 23.0 °F 40% 29.37 in 10.0 mi West 16.1 mph 23.0 mph N/A   Mostly Cloudy
12:15 PM 41.0 °F 33.5 °F 26.6 °F 57% 29.39 in 10.0 mi NE 13.8 mph - N/A   Overcast
12:35 PM 41.0 °F 33.9 °F 30.2 °F 65% 29.37 in 10.0 mi NNE 12.7 mph 23.0 mph N/A   Mostly Cloudy
12:55 PM 42.8 °F 33.1 °F 30.2 °F 61% 29.38 in 10.0 mi NNE 25.3 mph 29.9 mph N/A   Scattered Clouds
1:15 PM 39.2 °F 28.7 °F 30.2 °F 70% 29.39 in 10.0 mi North 23.0 mph 29.9 mph N/A   Mostly Cloudy
1:35 PM 37.4 °F 27.8 °F 30.2 °F 75% 29.39 in 10.0 mi NNE 17.3 mph 27.6 mph N/A   Overcast
1:55 PM 37.4 °F 27.5 °F 30.2 °F 75% 29.40 in 10.0 mi North 18.4 mph 25.3 mph N/A   Overcast
2:15 PM 37.4 °F 27.2 °F 30.2 °F 75% 29.40 in 10.0 mi North 19.6 mph 27.6 mph N/A   Overcast
2:35 PM 37.4 °F 28.2 °F 30.2 °F 75% 29.40 in 10.0 mi North 16.1 mph 21.9 mph N/A   Overcast
2:55 PM 37.4 °F 28.9 °F 30.2 °F 75% 29.41 in 10.0 mi North 13.8 mph 23.0 mph N/A   Overcast
3:15 PM 35.6 °F 25.9 °F 30.2 °F 81% 29.42 in 10.0 mi North 16.1 mph 25.3 mph N/A   Overcast
3:35 PM 35.6 °F 28.0 °F 30.2 °F 81% 29.44 in 10.0 mi North 10.4 mph 17.3 mph N/A   Overcast
3:55 PM 33.8 °F 25.8 °F 30.2 °F 87% 29.45 in 2.5 mi NW 10.4 mph - N/A   Overcast
4:15 PM 33.8 °F 27.0 °F 30.2 °F 87% 29.45 in 2.0 mi WNW 8.1 mph - N/A   Overcast
4:35 PM 33.8 °F 27.7 °F 30.2 °F 87% 29.45 in 10.0 mi NW 6.9 mph - N/A   Overcast
4:55 PM 33.8 °F 26.4 °F 30.2 °F 87% 29.45 in 10.0 mi NW 9.2 mph - N/A   Overcast
5:15 PM 35.6 °F 28.6 °F 32.0 °F 87% 29.47 in 10.0 mi NNW 9.2 mph - 0.01 in   Overcast
5:35 PM 35.6 °F 28.0 °F 30.2 °F 81% 29.48 in 10.0 mi NNW 10.4 mph - 0.01 in   Overcast
5:55 PM 35.6 °F 27.1 °F 30.2 °F 81% 29.49 in 10.0 mi North 12.7 mph - 0.01 in   Overcast
6:15 PM 33.8 °F 23.9 °F 28.4 °F 81% 29.51 in 10.0 mi North 15.0 mph - N/A   Overcast
6:35 PM 33.8 °F 22.5 °F 28.4 °F 81% 29.52 in 10.0 mi North 19.6 mph 25.3 mph N/A   Overcast
6:55 PM 33.8 °F 25.3 °F 28.4 °F 81% 29.53 in 10.0 mi North 11.5 mph 19.6 mph N/A   Overcast
7:15 PM 35.6 °F 28.6 °F 26.6 °F 70% 29.55 in 10.0 mi NNW 9.2 mph - N/A   Overcast
7:35 PM 35.6 °F 25.5 °F 24.8 °F 65% 29.56 in 10.0 mi NNW 17.3 mph 23.0 mph N/A   Overcast
7:55 PM 35.6 °F 24.2 °F 23.0 °F 60% 29.59 in 10.0 mi North 21.9 mph 27.6 mph N/A   Overcast
8:15 PM 33.8 °F 21.0 °F 24.8 °F 70% 29.62 in 10.0 mi North 25.3 mph 31.1 mph N/A   Overcast
8:35 PM 33.8 °F 20.3 °F 24.8 °F 70% 29.65 in 10.0 mi North 28.8 mph 39.1 mph N/A   Overcast
8:55 PM 33.8 °F 19.6 °F 24.8 °F 70% 29.66 in 7.0 mi North 32.2 mph 46.0 mph N/A   Overcast
9:15 PM 30.2 °F 14.3 °F 26.6 °F 86% 29.68 in 1.0 mi North 34.5 mph 47.2 mph N/A   Overcast
9:35 PM 30.2 °F 17.1 °F 24.8 °F 80% 29.70 in 10.0 mi North 21.9 mph 42.6 mph N/A   Mostly Cloudy
9:55 PM 30.2 °F 16.8 °F 24.8 °F 80% 29.71 in 10.0 mi NNW 23.0 mph 32.2 mph N/A   Mostly Cloudy
10:15 PM 30.2 °F 15.4 °F 24.8 °F 80% 29.72 in 10.0 mi NNW 28.8 mph 38.0 mph N/A   Mostly Cloudy
10:35 PM 30.2 °F 16.5 °F 24.8 °F 80% 29.73 in 10.0 mi NNW 24.2 mph 36.8 mph N/A   Overcast
10:55 PM 30.2 °F 16.5 °F 24.8 °F 80% 29.75 in 10.0 mi NNW 24.2 mph 35.7 mph N/A   Overcast
11:15 PM 30.2 °F 17.8 °F 24.8 °F 80% 29.77 in 10.0 mi NNW 19.6 mph 26.5 mph N/A   Overcast
11:35 PM 30.2 °F 19.3 °F 23.0 °F 75% 29.78 in 10.0 mi NNW 15.0 mph 27.6 mph N/A   Overcast
11:55 PM 30.2 °F 18.1 °F 23.0 °F 75% 29.78 in 10.0 mi NNW 18.4 mph - N/A   Overcast